EN

Hourly Weather Abakumy

Today, 12 June, Saturday

Time Temperature Precipitation Wind Pressure Humidity
00:00 +14°C° 0 mm 1 mps 748 mmHg 92%
01:00 +13°C° 0 mm 1 mps 748 mmHg 93%
02:00 +13°C° 0 mm 1 mps 748 mmHg 93%
03:00 +14°C° 0 mm 1 mps 748 mmHg 93%
04:00 +14°C° 0 mm 1 mps 748 mmHg 92%
05:00 +14°C° 0 mm 1 mps 748 mmHg 92%
06:00 +16°C° 0 mm 1 mps 748 mmHg 86%
07:00 +17°C° 0 mm 2 mps 748 mmHg 80%
08:00 +19°C° 0 mm 2 mps 748 mmHg 74%
09:00 +20°C° 0 mm 2 mps 748 mmHg 68%
10:00 +22°C° 0 mm 1 mps 748 mmHg 63%
11:00 +23°C° 0 mm 1 mps 747 mmHg 57%
12:00 +24°C° 0 mm 1 mps 747 mmHg 55%
13:00 +25°C° 0 mm 2 mps 747 mmHg 52%
14:00 +25°C° 0 mm 2 mps 747 mmHg 50%
15:00 +25°C° 0 mm 1 mps 747 mmHg 52%
16:00 +24°C° 0 mm 1 mps 746 mmHg 54%
17:00 +24°C° 0 mm 1 mps 746 mmHg 55%
18:00 +22°C° 0 mm 1 mps 746 mmHg 62%
19:00 +21°C° 0 mm 1 mps 745 mmHg 69%
20:00 +19°C° 0 mm 1 mps 745 mmHg 75%
21:00 +17°C° 0 mm 2 mps 745 mmHg 79%
22:00 +17°C° 0 mm 2 mps 745 mmHg 82%
23:00 +16°C° 0 mm 2 mps 745 mmHg 86%

Tomorrow, 13 June, Sunday

Time Temperature Precipitation Wind Pressure Humidity
00:00 +15°C° 0 mm 2 mps 744 mmHg 87%
01:00 +15°C° 0 mm 2 mps 744 mmHg 88%
02:00 +15°C° 0 mm 2 mps 744 mmHg 89%
03:00 +14°C° 0 mm 3 mps 743 mmHg 89%
04:00 +14°C° 0 mm 3 mps 743 mmHg 90%
05:00 +14°C° 0 mm 3 mps 743 mmHg 90%
06:00 +16°C° 0 mm 3 mps 743 mmHg 84%
07:00 +18°C° 0 mm 4 mps 742 mmHg 78%
08:00 +20°C° 0 mm 5 mps 742 mmHg 73%
09:00 +20°C° 0.2 mm 5 mps 742 mmHg 74%
10:00 +20°C° 0.2 mm 5 mps 742 mmHg 76%
11:00 +20°C° 0.2 mm 5 mps 742 mmHg 78%
12:00 +19°C° 0.3 mm 5 mps 743 mmHg 80%
13:00 +17°C° 0.3 mm 5 mps 743 mmHg 81%
14:00 +15°C° 0.3 mm 6 mps 744 mmHg 83%
15:00 +16°C° 0 mm 5 mps 744 mmHg 78%
16:00 +16°C° 0 mm 5 mps 744 mmHg 73%
17:00 +18°C° 0 mm 4 mps 745 mmHg 69%
18:00 +16°C° 0 mm 3 mps 745 mmHg 74%
19:00 +14°C° 0 mm 3 mps 745 mmHg 80%
20:00 +14°C° 0 mm 2 mps 746 mmHg 86%
21:00 +13°C° 0 mm 2 mps 746 mmHg 88%
22:00 +13°C° 0 mm 2 mps 746 mmHg 91%
23:00 +12°C° 0 mm 2 mps 746 mmHg 93%

Day after tomorrow, 14 June, Monday

Time Temperature Precipitation Wind Pressure Humidity
00:00 +10°C° 0 mm 2 mps 747 mmHg 93%
01:00 +11°C° 0 mm 1 mps 747 mmHg 94%
02:00 +11°C° 0 mm 1 mps 747 mmHg 95%
03:00 +11°C° 0 mm 1 mps 747 mmHg 94%
04:00 +11°C° 0 mm 1 mps 748 mmHg 93%
05:00 +12°C° 0 mm 1 mps 748 mmHg 92%
06:00 +13°C° 0 mm 1 mps 749 mmHg 86%
07:00 +15°C° 0 mm 1 mps 749 mmHg 80%
08:00 +18°C° 0 mm 1 mps 749 mmHg 74%
09:00 +19°C° 0 mm 1 mps 750 mmHg 69%
10:00 +21°C° 0 mm 1 mps 750 mmHg 64%
11:00 +22°C° 0 mm 1 mps 750 mmHg 59%
12:00 +21°C° 0 mm 2 mps 750 mmHg 58%
13:00 +23°C° 0 mm 2 mps 750 mmHg 57%
14:00 +24°C° 0 mm 2 mps 750 mmHg 56%
15:00 +23°C° 0 mm 2 mps 751 mmHg 59%
16:00 +23°C° 0 mm 2 mps 751 mmHg 62%
17:00 +22°C° 0 mm 3 mps 751 mmHg 65%
18:00 +20°C° 0 mm 3 mps 751 mmHg 72%
19:00 +18°C° 0 mm 3 mps 751 mmHg 80%
20:00 +17°C° 0 mm 3 mps 751 mmHg 88%
21:00 +16°C° 0 mm 3 mps 751 mmHg 90%
22:00 +14°C° 0 mm 3 mps 752 mmHg 93%
23:00 +12°C° 0 mm 3 mps 752 mmHg 96%

15 June, Tuesday

Time Temperature Precipitation Wind Pressure Humidity
00:00 +13°C° 0 mm 2 mps 752 mmHg 96%
01:00 +13°C° 0 mm 2 mps 752 mmHg 95%
02:00 +13°C° 0 mm 2 mps 752 mmHg 95%
03:00 +13°C° 0 mm 2 mps 752 mmHg 95%
04:00 +13°C° 0 mm 2 mps 752 mmHg 94%
05:00 +13°C° 0 mm 2 mps 752 mmHg 93%
06:00 +15°C° 0 mm 2 mps 752 mmHg 86%
07:00 +17°C° 0 mm 2 mps 752 mmHg 79%
08:00 +19°C° 0 mm 2 mps 752 mmHg 72%
09:00 +20°C° 0 mm 3 mps 752 mmHg 67%
10:00 +21°C° 0 mm 3 mps 751 mmHg 63%
11:00 +24°C° 0 mm 3 mps 751 mmHg 58%
12:00 +24°C° 0 mm 3 mps 751 mmHg 56%
13:00 +25°C° 0 mm 4 mps 751 mmHg 55%
14:00 +25°C° 0 mm 4 mps 751 mmHg 53%
15:00 +25°C° 0 mm 4 mps 750 mmHg 56%
16:00 +23°C° 0 mm 4 mps 750 mmHg 58%
17:00 +23°C° 0 mm 4 mps 750 mmHg 61%
18:00 +21°C° 0 mm 3 mps 750 mmHg 67%
19:00 +20°C° 0 mm 3 mps 750 mmHg 74%
20:00 +18°C° 0 mm 2 mps 750 mmHg 80%
21:00 +17°C° 0 mm 2 mps 750 mmHg 82%
22:00 +16°C° 0 mm 2 mps 750 mmHg 84%
23:00 +15°C° 0 mm 2 mps 750 mmHg 86%

16 June, Wednesday

Time Temperature Precipitation Wind Pressure Humidity
00:00 +15°C° 0 mm 2 mps 750 mmHg 87%
01:00 +14°C° 0 mm 2 mps 750 mmHg 89%
02:00 +14°C° 0 mm 2 mps 750 mmHg 91%
03:00 +14°C° 0 mm 2 mps 750 mmHg 91%
04:00 +14°C° 0 mm 2 mps 750 mmHg 91%
05:00 +15°C° 0 mm 2 mps 750 mmHg 91%
06:00 +17°C° 0 mm 3 mps 750 mmHg 85%
07:00 +18°C° 0 mm 3 mps 750 mmHg 80%
08:00 +20°C° 0 mm 3 mps 751 mmHg 74%
09:00 +21°C° 0.1 mm 4 mps 751 mmHg 71%
10:00 +22°C° 0.1 mm 4 mps 751 mmHg 68%
11:00 +23°C° 0.1 mm 5 mps 751 mmHg 66%
12:00 +23°C° 0.2 mm 5 mps 751 mmHg 65%
13:00 +23°C° 0.2 mm 5 mps 751 mmHg 64%
14:00 +25°C° 0.2 mm 5 mps 751 mmHg 63%
15:00 +23°C° 0 mm 5 mps 751 mmHg 64%
16:00 +23°C° 0 mm 5 mps 751 mmHg 64%
17:00 +23°C° 0 mm 5 mps 752 mmHg 65%
18:00 +22°C° 0 mm 5 mps 752 mmHg 69%
19:00 +20°C° 0 mm 4 mps 752 mmHg 73%
20:00 +19°C° 0 mm 4 mps 752 mmHg 78%
21:00 +18°C° 0 mm 4 mps 753 mmHg 79%
22:00 +17°C° 0 mm 4 mps 753 mmHg 80%
23:00 +16°C° 0 mm 3 mps 753 mmHg 82%

17 June, Thursday

Time Temperature Precipitation Wind Pressure Humidity
00:00 +14°C° 0 mm 3 mps 753 mmHg 83%
01:00 +13°C° 0 mm 3 mps 754 mmHg 84%
02:00 +13°C° 0 mm 3 mps 754 mmHg 84%
03:00 +13°C° 0 mm 3 mps 754 mmHg 83%
04:00 +13°C° 0 mm 3 mps 754 mmHg 82%
05:00 +13°C° 0 mm 3 mps 755 mmHg 81%
06:00 +15°C° 0 mm 4 mps 755 mmHg 75%
07:00 +18°C° 0 mm 4 mps 755 mmHg 69%
08:00 +19°C° 0 mm 5 mps 755 mmHg 63%
09:00 +21°C° 0 mm 5 mps 755 mmHg 59%
10:00 +22°C° 0 mm 5 mps 756 mmHg 55%
11:00 +23°C° 0 mm 5 mps 756 mmHg 52%
12:00 +25°C° 0 mm 5 mps 756 mmHg 50%
13:00 +24°C° 0 mm 6 mps 756 mmHg 49%
14:00 +24°C° 0 mm 6 mps 755 mmHg 47%
15:00 +25°C° 0 mm 5 mps 756 mmHg 50%
16:00 +25°C° 0 mm 5 mps 756 mmHg 53%
17:00 +23°C° 0 mm 4 mps 756 mmHg 56%
18:00 +21°C° 0 mm 4 mps 756 mmHg 63%
19:00 +20°C° 0 mm 3 mps 756 mmHg 70%
20:00 +18°C° 0 mm 3 mps 756 mmHg 76%
21:00 +17°C° 0 mm 3 mps 757 mmHg 80%
22:00 +16°C° 0 mm 3 mps 757 mmHg 83%
23:00 +14°C° 0 mm 3 mps 757 mmHg 86%
Show more